TimeMST,TemperatureF,Dew PointF,Humidity,Sea Level PressureIn,VisibilityMPH,Wind Direction,Wind SpeedMPH,Gust SpeedMPH,PrecipitationIn,Events,Conditions,WindDirDegrees,DateUTC
12:54 AM,27.0,17.1,66,30.05,10.0,Calm,Calm,-,N/A,,Clear,0,2012-11-28 07:54:00
1:54 AM,30.9,18.0,59,30.04,10.0,Calm,Calm,-,N/A,,Clear,0,2012-11-28 08:54:00
2:54 AM,27.0,18.0,69,30.06,10.0,ESE,3.5,-,N/A,,Clear,110,2012-11-28 09:54:00
3:54 AM,27.0,19.0,72,30.05,10.0,SE,4.6,-,N/A,,Clear,130,2012-11-28 10:54:00
4:54 AM,28.9,19.9,69,30.07,10.0,Variable,3.5,-,N/A,,Clear,0,2012-11-28 11:54:00
5:54 AM,34.0,21.9,61,30.06,10.0,South,3.5,-,N/A,,Clear,170,2012-11-28 12:54:00
6:54 AM,34.0,23.0,64,30.06,10.0,Calm,Calm,-,N/A,,Clear,0,2012-11-28 13:54:00
7:54 AM,33.1,21.9,64,30.07,10.0,North,4.6,-,N/A,,Clear,360,2012-11-28 14:54:00
8:54 AM,37.0,24.1,59,30.06,10.0,Calm,Calm,-,N/A,,Clear,0,2012-11-28 15:54:00
9:54 AM,46.0,25.0,44,30.05,10.0,West,3.5,-,N/A,,Clear,280,2012-11-28 16:54:00
10:54 AM,50.0,23.0,35,30.03,10.0,WSW,8.1,-,N/A,,Clear,240,2012-11-28 17:54:00
11:54 AM,51.1,19.9,29,30.00,10.0,West,6.9,-,N/A,,Clear,270,2012-11-28 18:54:00
12:54 PM,52.0,19.9,28,29.97,10.0,Variable,3.5,-,N/A,,Clear,0,2012-11-28 19:54:00
1:54 PM,54.0,19.0,25,29.92,10.0,SW,4.6,-,N/A,,Clear,230,2012-11-28 20:54:00
2:54 PM,51.1,21.0,31,29.92,10.0,NNE,3.5,-,N/A,,Clear,30,2012-11-28 21:54:00
3:54 PM,45.0,21.9,40,29.93,10.0,ESE,4.6,-,N/A,,Clear,110,2012-11-28 22:54:00
4:54 PM,39.0,23.0,53,29.93,10.0,East,5.8,-,N/A,,Clear,100,2012-11-28 23:54:00
5:54 PM,33.1,21.9,64,29.92,10.0,ESE,5.8,-,N/A,,Clear,110,2012-11-29 00:54:00
6:54 PM,33.1,21.9,64,29.91,10.0,ESE,9.2,-,N/A,,Clear,120,2012-11-29 01:54:00
7:54 PM,32.0,21.9,66,29.91,10.0,SE,6.9,-,N/A,,Clear,130,2012-11-29 02:54:00
8:54 PM,34.0,21.0,59,29.86,10.0,SE,6.9,-,N/A,,Clear,130,2012-11-29 03:54:00
9:54 PM,34.0,21.0,59,29.84,10.0,ESE,6.9,-,N/A,,Clear,120,2012-11-29 04:54:00
10:54 PM,34.0,21.9,61,29.82,10.0,SE,4.6,-,N/A,,Clear,130,2012-11-29 05:54:00
11:54 PM,42.1,21.9,45,29.79,10.0,SSW,6.9,-,N/A,,Clear,200,2012-11-29 06:54:00